Check out our new BloomSky Weather System.

Active alerts


No alerts


Thunder radar  blitzortung!


Rain radar more information rain snow radar


Visit our other weather sites:

Template documentation
and downloads

And another site



Weather Underground History page Text

Daily Summary for March 2, 2017 Units:  English    Metric   Both
« Previous Day
Next Day »
Daily Weekly Monthly Yearly Custom
  High: Low: Average:
Temperature: 67.8 °F 48.6 °F 57.4 °F
Dew Point: 37.6 °F 26.2 °F 30.1 °F
Humidity: 64 % 23 % 37 %
Wind Speed: 9.0 mph 0.0 mph 2 mph
Wind Gust: 18.0 mph - -
Wind:- - SSW
Pressure: 30.45 in 30.22 in -
Precipitation: 0.00 in    
Historical Graphs
 
 
Tabular Data for March 2, 2017
Time Temperature Dew Point Pressure Wind Wind Speed Wind Gust Humidity Rainfall Rate (Hourly)
00:00 58.6 °F 28.9 °F 30.22 in WNW 1.0 mph 7.0 mph 32 % 0.00 in
00:05 58.5 °F 28.8 °F 30.22 in NW 2.0 mph 9.0 mph 32 % 0.00 in
00:10 58.3 °F 29.3 °F 30.22 in NNW 4.0 mph 9.0 mph 33 % 0.00 in
00:12 58.3 °F 28.6 °F 30.22 in NNW 2.0 mph 9.0 mph 32 % 0.00 in
00:17 58.3 °F 28.6 °F 30.22 in NNW 6.0 mph 11.0 mph 32 % 0.00 in
00:22 58.3 °F 28.6 °F 30.22 in Calm   11.0 mph 32 % 0.00 in
00:27 57.9 °F 28.9 °F 30.22 in NW 1.0 mph 12.0 mph 33 % 0.00 in
00:32 57.7 °F 28.0 °F 30.22 in NNW 2.0 mph 12.0 mph 32 % 0.00 in
00:37 57.6 °F 28.6 °F 30.22 in NW 4.0 mph 12.0 mph 33 % 0.00 in
00:42 57.4 °F 28.6 °F 30.22 in NW 2.0 mph 8.0 mph 33 % 0.00 in
00:47 57.2 °F 28.4 °F 30.22 in NNW 1.0 mph 8.0 mph 33 % 0.00 in
00:52 57.0 °F 28.2 °F 30.22 in North 2.0 mph 8.0 mph 33 % 0.00 in
00:57 57.0 °F 28.2 °F 30.22 in NNW 2.0 mph 8.0 mph 33 % 0.00 in
01:02 57.0 °F 28.2 °F 30.23 in NNE 2.0 mph 12.0 mph 33 % 0.00 in
01:07 56.8 °F 28.0 °F 30.23 in NW 3.0 mph 12.0 mph 33 % 0.00 in
01:12 56.8 °F 28.0 °F 30.23 in NNW 2.0 mph 12.0 mph 33 % 0.00 in
01:17 56.5 °F 27.7 °F 30.23 in NW 3.0 mph 11.0 mph 33 % 0.00 in
01:18 56.5 °F 27.7 °F 30.23 in NNW 1.0 mph 11.0 mph 33 % 0.00 in
01:23 56.1 °F 28.0 °F 30.23 in WNW 3.0 mph 8.0 mph 34 % 0.00 in
01:28 55.9 °F 28.0 °F 30.23 in WNW 1.0 mph 9.0 mph 34 % 0.00 in
01:33 55.8 °F 28.6 °F 30.23 in NNW 1.0 mph 9.0 mph 35 % 0.00 in
01:38 55.6 °F 28.4 °F 30.23 in NW 3.0 mph 9.0 mph 35 % 0.00 in
01:44 55.2 °F 28.0 °F 30.23 in NNW 3.0 mph 9.0 mph 35 % 0.00 in
01:49 55.2 °F 28.0 °F 30.23 in Calm   9.0 mph 35 % 0.00 in
01:54 55.0 °F 27.9 °F 30.23 in NNW 1.0 mph 6.0 mph 35 % 0.00 in
01:59 55.0 °F 27.9 °F 30.23 in North 4.0 mph 9.0 mph 35 % 0.00 in
02:04 54.9 °F 27.7 °F 30.23 in North 3.0 mph 9.0 mph 35 % 0.00 in
02:09 54.7 °F 28.2 °F 30.23 in NW 2.0 mph 9.0 mph 36 % 0.00 in
02:14 54.7 °F 27.5 °F 30.24 in NW 2.0 mph 6.0 mph 35 % 0.00 in
02:19 54.7 °F 27.5 °F 30.24 in NW 2.0 mph 7.0 mph 35 % 0.00 in
02:24 54.7 °F 27.5 °F 30.24 in NNE 2.0 mph 7.0 mph 35 % 0.00 in
02:29 54.5 °F 28.0 °F 30.24 in NW 2.0 mph 8.0 mph 36 % 0.00 in
02:34 54.3 °F 27.9 °F 30.23 in North 1.0 mph 8.0 mph 36 % 0.00 in
02:39 54.0 °F 28.2 °F 30.24 in North 3.0 mph 8.0 mph 37 % 0.00 in
02:44 54.0 °F 28.2 °F 30.24 in NNW 2.0 mph 8.0 mph 37 % 0.00 in
02:49 53.8 °F 28.0 °F 30.24 in NW 1.0 mph 7.0 mph 37 % 0.00 in
02:54 53.8 °F 28.0 °F 30.24 in NW 1.0 mph 7.0 mph 37 % 0.00 in
02:59 53.4 °F 28.4 °F 30.24 in NW 1.0 mph 7.0 mph 38 % 0.00 in
03:04 53.4 °F 28.4 °F 30.25 in North 3.0 mph 5.0 mph 38 % 0.00 in
03:09 53.2 °F 28.2 °F 30.24 in Calm   8.0 mph 38 % 0.00 in
03:14 53.1 °F 28.8 °F 30.24 in NNE 1.0 mph 8.0 mph 39 % 0.00 in
03:19 52.9 °F 28.6 °F 30.25 in North 1.0 mph 8.0 mph 39 % 0.00 in
03:24 52.7 °F 28.4 °F 30.25 in NNW 4.0 mph 5.0 mph 39 % 0.00 in
03:29 52.5 °F 28.9 °F 30.24 in Calm   5.0 mph 40 % 0.00 in
03:34 52.3 °F 28.8 °F 30.25 in NNW 1.0 mph 6.0 mph 40 % 0.00 in
03:39 52.2 °F 28.6 °F 30.25 in North 2.0 mph 6.0 mph 40 % 0.00 in
03:44 52.0 °F 28.4 °F 30.25 in NNW 1.0 mph 6.0 mph 40 % 0.00 in
03:49 52.0 °F 28.9 °F 30.25 in North 1.0 mph 5.0 mph 41 % 0.00 in
03:54 51.8 °F 28.8 °F 30.25 in NW 1.0 mph 5.0 mph 41 % 0.00 in
03:59 51.6 °F 28.8 °F 30.25 in NNW 2.0 mph 5.0 mph 41 % 0.00 in
04:04 51.6 °F 28.8 °F 30.25 in NNW 1.0 mph 7.0 mph 41 % 0.00 in
04:09 51.4 °F 28.6 °F 30.25 in North 1.0 mph 7.0 mph 41 % 0.00 in
04:14 51.3 °F 28.9 °F 30.25 in Calm   7.0 mph 42 % 0.00 in
04:19 51.3 °F 28.9 °F 30.25 in NNW 1.0 mph 5.0 mph 42 % 0.00 in
04:24 51.3 °F 28.9 °F 30.25 in NW 1.0 mph 6.0 mph 42 % 0.00 in
04:29 51.1 °F 28.8 °F 30.26 in NW 2.0 mph 6.0 mph 42 % 0.00 in
04:34 50.9 °F 28.6 °F 30.26 in NNW 1.0 mph 6.0 mph 42 % 0.00 in
04:39 50.9 °F 28.6 °F 30.26 in North 2.0 mph 5.0 mph 42 % 0.00 in
04:44 50.7 °F 29.1 °F 30.27 in NNW 2.0 mph 5.0 mph 43 % 0.00 in
04:49 50.7 °F 28.4 °F 30.27 in Calm   4.0 mph 42 % 0.00 in
04:54 50.7 °F 28.4 °F 30.27 in North 2.0 mph 5.0 mph 42 % 0.00 in
04:59 50.7 °F 28.4 °F 30.27 in NNW 1.0 mph 5.0 mph 42 % 0.00 in
05:04 50.7 °F 28.4 °F 30.28 in NNW 1.0 mph 6.0 mph 42 % 0.00 in
05:09 50.7 °F 28.4 °F 30.28 in NNW 3.0 mph 6.0 mph 42 % 0.00 in
05:14 50.5 °F 28.2 °F 30.28 in NNE 2.0 mph 7.0 mph 42 % 0.00 in
05:19 50.5 °F 28.2 °F 30.29 in North 2.0 mph 7.0 mph 42 % 0.00 in
05:24 50.4 °F 28.8 °F 30.29 in NNW 2.0 mph 7.0 mph 43 % 0.00 in
05:29 50.4 °F 28.8 °F 30.29 in NNE 6.0 mph 6.0 mph 43 % 0.00 in
05:35 50.2 °F 28.6 °F 30.29 in Calm   7.0 mph 43 % 0.00 in
05:40 50.0 °F 28.4 °F 30.29 in Calm   7.0 mph 43 % 0.00 in
05:45 49.8 °F 28.8 °F 30.30 in NNW 3.0 mph 7.0 mph 44 % 0.00 in
05:50 49.8 °F 28.8 °F 30.30 in ENE 4.0 mph 5.0 mph 44 % 0.00 in
05:55 49.8 °F 28.2 °F 30.30 in NW 2.0 mph 8.0 mph 43 % 0.00 in
06:00 49.8 °F 28.8 °F 30.30 in Calm   8.0 mph 44 % 0.00 in
06:05 49.6 °F 28.6 °F 30.30 in NW 2.0 mph 8.0 mph 44 % 0.00 in
06:10 49.5 °F 28.4 °F 30.31 in North 1.0 mph 6.0 mph 44 % 0.00 in
06:15 49.3 °F 28.8 °F 30.31 in NNW 2.0 mph 5.0 mph 45 % 0.00 in
06:20 49.3 °F 28.8 °F 30.31 in WNW 1.0 mph 5.0 mph 45 % 0.00 in
06:25 49.1 °F 28.8 °F 30.31 in NNW 2.0 mph 7.0 mph 45 % 0.00 in
06:35 48.9 °F 29.1 °F 30.31 in NNE 2.0 mph 7.0 mph 46 % 0.00 in
06:40 48.9 °F 29.1 °F 30.32 in Calm   5.0 mph 46 % 0.00 in
06:45 48.7 °F 28.9 °F 30.32 in NNE 2.0 mph 4.0 mph 46 % 0.00 in
06:55 48.6 °F 28.8 °F 30.32 in NW 3.0 mph 4.0 mph 46 % 0.00 in
07:00 48.6 °F 28.8 °F 30.32 in Calm   4.0 mph 46 % 0.00 in
07:05 48.7 °F 28.9 °F 30.32 in North 1.0 mph 4.0 mph 46 % 0.00 in
07:10 48.7 °F 28.9 °F 30.33 in NE 1.0 mph 5.0 mph 46 % 0.00 in
07:15 48.9 °F 29.1 °F 30.33 in NNE 1.0 mph 5.0 mph 46 % 0.00 in
07:20 48.9 °F 29.1 °F 30.33 in NNE 2.0 mph 5.0 mph 46 % 0.00 in
07:25 49.1 °F 29.1 °F 30.33 in NW 1.0 mph 5.0 mph 46 % 0.00 in
07:30 49.3 °F 28.8 °F 30.33 in WNW 2.0 mph 5.0 mph 45 % 0.00 in
07:35 49.6 °F 29.1 °F 30.33 in NW 1.0 mph 5.0 mph 45 % 0.00 in
07:40 49.8 °F 29.3 °F 30.34 in NNE 1.0 mph 5.0 mph 45 % 0.00 in
07:45 50.5 °F 30.0 °F 30.34 in NNW 4.0 mph 6.0 mph 45 % 0.00 in
07:50 51.4 °F 30.2 °F 30.35 in NNE 4.0 mph 7.0 mph 44 % 0.00 in
07:55 52.2 °F 30.4 °F 30.35 in NW 3.0 mph 7.0 mph 43 % 0.00 in
08:00 52.7 °F 30.2 °F 30.35 in ENE 1.0 mph 7.0 mph 42 % 0.00 in
08:05 53.2 °F 29.5 °F 30.36 in ENE 8.0 mph 8.0 mph 40 % 0.00 in
08:10 53.8 °F 30.6 °F 30.36 in North 1.0 mph 9.0 mph 41 % 0.00 in
08:15 54.1 °F 29.1 °F 30.36 in Calm   10.0 mph 38 % 0.00 in
08:20 54.5 °F 30.0 °F 30.37 in NW 7.0 mph 10.0 mph 39 % 0.00 in
08:25 55.0 °F 29.8 °F 30.37 in Calm   10.0 mph 38 % 0.00 in
08:30 55.8 °F 29.8 °F 30.37 in ENE 1.0 mph 8.0 mph 37 % 0.00 in
08:35 56.1 °F 29.5 °F 30.37 in NNW 3.0 mph 9.0 mph 36 % 0.00 in
08:36 56.1 °F 30.2 °F 30.37 in NNW 6.0 mph 9.0 mph 37 % 0.00 in
08:41 56.5 °F 28.4 °F 30.37 in North 2.0 mph 9.0 mph 34 % 0.00 in
08:46 56.8 °F 28.0 °F 30.38 in North 3.0 mph 18.0 mph 33 % 0.00 in
08:51 57.0 °F 28.9 °F 30.38 in NE 3.0 mph 18.0 mph 34 % 0.00 in
08:56 57.4 °F 27.7 °F 30.38 in North 4.0 mph 18.0 mph 32 % 0.00 in
09:01 57.2 °F 29.1 °F 30.38 in NNW 5.0 mph 15.0 mph 34 % 0.00 in
09:06 57.4 °F 28.6 °F 30.38 in NNE 3.0 mph 17.0 mph 33 % 0.00 in
09:11 57.4 °F 27.7 °F 30.38 in North 6.0 mph 17.0 mph 32 % 0.00 in
09:17 57.6 °F 29.5 °F 30.38 in East 2.0 mph 17.0 mph 34 % 0.00 in
09:22 57.6 °F 28.6 °F 30.38 in NNE 7.0 mph 13.0 mph 33 % 0.00 in
09:27 57.0 °F 27.5 °F 30.39 in NNW 2.0 mph 15.0 mph 32 % 0.00 in
09:32 57.0 °F 27.5 °F 30.39 in NNW 2.0 mph 17.0 mph 32 % 0.00 in
09:37 57.0 °F 27.5 °F 30.39 in NNW 6.0 mph 17.0 mph 32 % 0.00 in
09:42 57.4 °F 27.7 °F 30.39 in NNE 4.0 mph 17.0 mph 32 % 0.00 in
09:47 57.7 °F 28.0 °F 30.40 in North 4.0 mph 11.0 mph 32 % 0.00 in
09:52 57.9 °F 28.2 °F 30.40 in Calm   15.0 mph 32 % 0.00 in
09:57 58.3 °F 27.9 °F 30.40 in NNE 8.0 mph 15.0 mph 31 % 0.00 in
10:02 58.5 °F 28.8 °F 30.40 in NNE 7.0 mph 15.0 mph 32 % 0.00 in
10:07 58.8 °F 28.9 °F 30.40 in ENE 6.0 mph 14.0 mph 32 % 0.00 in
10:12 59.4 °F 29.5 °F 30.40 in NE 6.0 mph 14.0 mph 32 % 0.00 in
10:17 59.4 °F 29.5 °F 30.40 in East 1.0 mph 10.0 mph 32 % 0.00 in
10:22 59.5 °F 28.0 °F 30.40 in NW 4.0 mph 14.0 mph 30 % 0.00 in
10:27 59.5 °F 28.0 °F 30.40 in East 4.0 mph 14.0 mph 30 % 0.00 in
10:32 60.1 °F 28.6 °F 30.40 in North 9.0 mph 14.0 mph 30 % 0.00 in
10:37 60.6 °F 28.9 °F 30.40 in NE 1.0 mph 12.0 mph 30 % 0.00 in
10:42 61.0 °F 27.7 °F 30.40 in NE 8.0 mph 11.0 mph 28 % 0.00 in
10:47 61.0 °F 29.3 °F 30.41 in ESE 2.0 mph 10.0 mph 30 % 0.00 in
10:52 61.2 °F 27.0 °F 30.40 in East 5.0 mph 13.0 mph 27 % 0.00 in
10:57 61.2 °F 27.0 °F 30.40 in NE 7.0 mph 13.0 mph 27 % 0.00 in
10:58 61.2 °F 27.9 °F 30.40 in East 6.0 mph 13.0 mph 28 % 0.00 in
11:03 61.3 °F 26.2 °F 30.40 in East 7.0 mph 13.0 mph 26 % 0.00 in
11:08 61.9 °F 26.6 °F 30.40 in ENE 8.0 mph 13.0 mph 26 % 0.00 in
11:13 62.2 °F 28.8 °F 30.40 in NNW 4.0 mph 13.0 mph 28 % 0.00 in
11:18 62.4 °F 28.0 °F 30.40 in North 2.0 mph 12.0 mph 27 % 0.00 in
11:23 63.0 °F 30.2 °F 30.40 in NE 2.0 mph 12.0 mph 29 % 0.00 in
11:28 62.8 °F 28.2 °F 30.40 in East 7.0 mph 10.0 mph 27 % 0.00 in
11:33 63.0 °F 27.5 °F 30.40 in NW 2.0 mph 12.0 mph 26 % 0.00 in
11:38 63.0 °F 28.4 °F 30.40 in SSE 1.0 mph 12.0 mph 27 % 0.00 in
11:43 62.8 °F 28.2 °F 30.40 in East 1.0 mph 12.0 mph 27 % 0.00 in
11:48 63.5 °F 29.8 °F 30.40 in NW 6.0 mph 9.0 mph 28 % 0.00 in
11:53 64.0 °F 28.4 °F 30.39 in NW 1.0 mph 9.0 mph 26 % 0.00 in
11:58 63.5 °F 29.8 °F 30.39 in WSW 1.0 mph 9.0 mph 28 % 0.00 in
12:03 63.7 °F 29.1 °F 30.38 in NNE 1.0 mph 9.0 mph 27 % 0.00 in
12:08 63.7 °F 30.0 °F 30.38 in ESE 4.0 mph 11.0 mph 28 % 0.00 in
12:13 63.9 °F 28.2 °F 30.38 in North 2.0 mph 13.0 mph 26 % 0.00 in
12:18 64.2 °F 29.5 °F 30.38 in NNE 4.0 mph 13.0 mph 27 % 0.00 in
12:23 64.4 °F 29.7 °F 30.38 in NNE 5.0 mph 13.0 mph 27 % 0.00 in
12:28 64.2 °F 28.6 °F 30.38 in SE 2.0 mph 11.0 mph 26 % 0.00 in
12:33 65.1 °F 30.4 °F 30.38 in Calm   11.0 mph 27 % 0.00 in
12:38 64.9 °F 30.2 °F 30.38 in WNW 3.0 mph 11.0 mph 27 % 0.00 in
12:43 65.5 °F 30.6 °F 30.38 in East 2.0 mph 10.0 mph 27 % 0.00 in
12:48 65.1 °F 28.4 °F 30.37 in NNW 5.0 mph 10.0 mph 25 % 0.00 in
12:53 64.9 °F 29.3 °F 30.37 in NNE 3.0 mph 11.0 mph 26 % 0.00 in
12:58 64.8 °F 29.1 °F 30.37 in NNW 5.0 mph 12.0 mph 26 % 0.00 in
13:03 64.6 °F 28.0 °F 30.36 in ESE 5.0 mph 12.0 mph 25 % 0.00 in
13:06 64.4 °F 29.7 °F 30.36 in ESE 1.0 mph 12.0 mph 27 % 0.00 in
13:11 65.1 °F 31.3 °F 30.36 in North 2.0 mph 12.0 mph 28 % 0.00 in
13:16 65.7 °F 28.9 °F 30.36 in NW 4.0 mph 10.0 mph 25 % 0.00 in
13:21 65.8 °F 28.9 °F 30.36 in NNE 4.0 mph 10.0 mph 25 % 0.00 in
13:26 65.5 °F 29.7 °F 30.35 in NNW 4.0 mph 10.0 mph 26 % 0.00 in
13:36 65.8 °F 30.9 °F 30.35 in ENE 3.0 mph 12.0 mph 27 % 0.00 in
13:41 66.0 °F 28.2 °F 30.35 in NE 7.0 mph 12.0 mph 24 % 0.00 in
13:43 65.8 °F 28.9 °F 30.35 in NE 3.0 mph 12.0 mph 25 % 0.00 in
13:48 65.7 °F 31.6 °F 30.35 in NNE 3.0 mph 12.0 mph 28 % 0.00 in
13:53 66.0 °F 31.1 °F 30.34 in NW 2.0 mph 9.0 mph 27 % 0.00 in
13:58 66.7 °F 31.6 °F 30.34 in WNW 3.0 mph 9.0 mph 27 % 0.00 in
14:03 66.4 °F 30.4 °F 30.35 in NE 4.0 mph 12.0 mph 26 % 0.00 in
14:08 66.2 °F 29.3 °F 30.35 in Calm   12.0 mph 25 % 0.00 in
14:13 66.7 °F 30.7 °F 30.34 in ENE 3.0 mph 12.0 mph 26 % 0.00 in
14:18 66.6 °F 30.6 °F 30.34 in NW 4.0 mph 15.0 mph 26 % 0.00 in
14:23 66.7 °F 30.7 °F 30.34 in NNW 5.0 mph 15.0 mph 26 % 0.00 in
14:28 66.6 °F 29.7 °F 30.34 in NNE 5.0 mph 15.0 mph 25 % 0.00 in
14:33 66.2 °F 31.3 °F 30.34 in NE 1.0 mph 10.0 mph 27 % 0.00 in
14:38 66.9 °F 31.8 °F 30.34 in North 7.0 mph 12.0 mph 27 % 0.00 in
14:43 66.9 °F 31.8 °F 30.34 in West 3.0 mph 12.0 mph 27 % 0.00 in
14:48 66.9 °F 30.0 °F 30.33 in North 3.0 mph 12.0 mph 25 % 0.00 in
14:53 66.7 °F 29.8 °F 30.33 in NNW 5.0 mph 10.0 mph 25 % 0.00 in
14:58 66.7 °F 29.8 °F 30.33 in North 3.0 mph 12.0 mph 25 % 0.00 in
15:03 66.7 °F 29.8 °F 30.33 in NW 3.0 mph 12.0 mph 25 % 0.00 in
15:08 66.9 °F 30.9 °F 30.33 in NW 5.0 mph 12.0 mph 26 % 0.00 in
15:13 67.3 °F 31.3 °F 30.32 in East 1.0 mph 10.0 mph 26 % 0.00 in
15:18 67.5 °F 29.5 °F 30.33 in North 2.0 mph 12.0 mph 24 % 0.00 in
15:23 67.5 °F 30.4 °F 30.32 in NE 1.0 mph 12.0 mph 25 % 0.00 in
15:28 67.5 °F 30.4 °F 30.32 in NNW 5.0 mph 12.0 mph 25 % 0.00 in
15:33 67.3 °F 28.2 °F 30.32 in WNW 2.0 mph 13.0 mph 23 % 0.00 in
15:38 67.5 °F 28.4 °F 30.32 in West 1.0 mph 13.0 mph 23 % 0.00 in
15:43 67.8 °F 30.7 °F 30.32 in NE 4.0 mph 13.0 mph 25 % 0.00 in
15:48 67.5 °F 28.4 °F 30.32 in NNW 3.0 mph 11.0 mph 23 % 0.00 in
15:53 67.5 °F 30.4 °F 30.32 in ENE 2.0 mph 9.0 mph 25 % 0.00 in
15:58 67.5 °F 29.5 °F 30.32 in NNW 4.0 mph 9.0 mph 24 % 0.00 in
16:03 66.9 °F 28.9 °F 30.32 in North 2.0 mph 7.0 mph 24 % 0.00 in
16:08 66.9 °F 28.9 °F 30.32 in East 2.0 mph 8.0 mph 24 % 0.00 in
16:13 66.7 °F 29.8 °F 30.32 in North 4.0 mph 8.0 mph 25 % 0.00 in
16:19 66.6 °F 29.7 °F 30.32 in NNE 7.0 mph 8.0 mph 25 % 0.00 in
16:24 66.4 °F 29.5 °F 30.33 in NNE 4.0 mph 11.0 mph 25 % 0.00 in
16:29 66.4 °F 27.5 °F 30.33 in Calm   11.0 mph 23 % 0.00 in
16:34 66.4 °F 28.4 °F 30.33 in NNW 3.0 mph 11.0 mph 24 % 0.00 in
16:39 66.6 °F 29.7 °F 30.32 in WNW 2.0 mph 9.0 mph 25 % 0.00 in
16:44 66.4 °F 30.4 °F 30.32 in NE 2.0 mph 6.0 mph 26 % 0.00 in
16:49 66.4 °F 30.4 °F 30.33 in ESE 1.0 mph 6.0 mph 26 % 0.00 in
16:54 66.4 °F 29.5 °F 30.33 in NW 2.0 mph 9.0 mph 25 % 0.00 in
16:59 66.2 °F 29.3 °F 30.33 in East 2.0 mph 9.0 mph 25 % 0.00 in
17:04 66.6 °F 30.6 °F 30.33 in NE 1.0 mph 9.0 mph 26 % 0.00 in
17:09 66.6 °F 30.6 °F 30.33 in NNE 3.0 mph 5.0 mph 26 % 0.00 in
17:14 66.4 °F 30.4 °F 30.33 in NW 3.0 mph 5.0 mph 26 % 0.00 in
17:19 66.0 °F 29.1 °F 30.34 in North 2.0 mph 5.0 mph 25 % 0.00 in
17:24 65.8 °F 28.9 °F 30.34 in North 2.0 mph 6.0 mph 25 % 0.00 in
17:29 65.7 °F 27.9 °F 30.34 in North 3.0 mph 6.0 mph 24 % 0.00 in
17:34 65.5 °F 27.7 °F 30.34 in NNW 1.0 mph 6.0 mph 24 % 0.00 in
17:39 65.1 °F 27.5 °F 30.34 in ENE 2.0 mph 6.0 mph 24 % 0.00 in
17:44 64.9 °F 27.3 °F 30.34 in ENE 1.0 mph 6.0 mph 24 % 0.00 in
17:49 64.8 °F 27.1 °F 30.35 in Calm   6.0 mph 24 % 0.00 in
17:54 64.6 °F 28.0 °F 30.35 in NNE 3.0 mph 6.0 mph 25 % 0.00 in
17:55 64.6 °F 28.0 °F 30.35 in NNW 1.0 mph 6.0 mph 25 % 0.00 in
18:00 64.2 °F 29.5 °F 30.35 in North 1.0 mph 5.0 mph 27 % 0.00 in
18:05 64.0 °F 29.3 °F 30.35 in Calm   7.0 mph 27 % 0.00 in
18:10 63.7 °F 29.1 °F 30.35 in Calm   7.0 mph 27 % 0.00 in
18:15 63.3 °F 29.7 °F 30.35 in Calm   7.0 mph 28 % 0.00 in
18:20 63.0 °F 29.3 °F 30.35 in North 1.0 mph 3.0 mph 28 % 0.00 in
18:25 62.4 °F 28.9 °F 30.36 in Calm   2.0 mph 28 % 0.00 in
18:30 62.1 °F 29.5 °F 30.36 in Calm   2.0 mph 29 % 0.00 in
18:35 61.5 °F 28.9 °F 30.36 in Calm   2.0 mph 29 % 0.00 in
18:40 61.2 °F 28.6 °F 30.36 in Calm   1.0 mph 29 % 0.00 in
18:45 60.6 °F 28.9 °F 30.37 in Calm   1.0 mph 30 % 0.00 in
18:50 60.4 °F 28.9 °F 30.37 in Calm   1.0 mph 30 % 0.00 in
18:55 60.3 °F 28.8 °F 30.37 in Calm   1.0 mph 30 % 0.00 in
19:00 59.9 °F 28.4 °F 30.37 in Calm   1.0 mph 30 % 0.00 in
19:05 59.5 °F 28.9 °F 30.37 in Calm   1.0 mph 31 % 0.00 in
19:10 59.2 °F 29.3 °F 30.37 in Calm   1.0 mph 32 % 0.00 in
19:15 58.8 °F 29.8 °F 30.38 in Calm   1.0 mph 33 % 0.00 in
19:20 58.5 °F 31.6 °F 30.38 in Calm   1.0 mph 36 % 0.00 in
19:25 57.6 °F 30.7 °F 30.38 in Calm   1.0 mph 36 % 0.00 in
19:30 56.8 °F 30.9 °F 30.38 in Calm   1.0 mph 37 % 0.00 in
19:35 56.8 °F 30.9 °F 30.38 in Calm   1.0 mph 37 % 0.00 in
19:40 56.8 °F 30.9 °F 30.38 in Calm   1.0 mph 37 % 0.00 in
19:45 56.7 °F 30.7 °F 30.39 in Calm   1.0 mph 37 % 0.00 in
19:50 56.5 °F 31.1 °F 30.39 in Calm   1.0 mph 38 % 0.00 in
19:55 56.3 °F 31.6 °F 30.40 in Calm   1.0 mph 39 % 0.00 in
20:00 55.9 °F 32.0 °F 30.40 in Calm   1.0 mph 40 % 0.00 in
20:05 55.4 °F 32.7 °F 30.40 in Calm   1.0 mph 42 % 0.00 in
20:10 55.2 °F 32.5 °F 30.40 in Calm   1.0 mph 42 % 0.00 in
20:15 55.2 °F 32.5 °F 30.40 in Calm   1.0 mph 42 % 0.00 in
20:20 55.0 °F 33.4 °F 30.40 in Calm   1.0 mph 44 % 0.00 in
20:25 54.5 °F 34.7 °F 30.40 in Calm   1.0 mph 47 % 0.00 in
20:30 54.1 °F 34.9 °F 30.40 in Calm   1.0 mph 48 % 0.00 in
20:35 53.8 °F 34.0 °F 30.41 in Calm   1.0 mph 47 % 0.00 in
20:40 53.1 °F 33.8 °F 30.41 in Calm   1.0 mph 48 % 0.00 in
20:45 52.9 °F 35.2 °F 30.41 in Calm     51 % 0.00 in
20:50 52.5 °F 34.9 °F 30.41 in Calm     51 % 0.00 in
20:55 52.5 °F 35.4 °F 30.42 in Calm     52 % 0.00 in
21:00 52.5 °F 35.4 °F 30.42 in Calm     52 % 0.00 in
21:05 52.3 °F 35.2 °F 30.42 in Calm     52 % 0.00 in
21:10 52.0 °F 35.4 °F 30.42 in Calm     53 % 0.00 in
21:16 52.0 °F 35.4 °F 30.42 in Calm     53 % 0.00 in
21:21 51.6 °F 36.0 °F 30.42 in Calm     55 % 0.00 in
21:26 51.6 °F 35.6 °F 30.42 in Calm     54 % 0.00 in
21:31 51.1 °F 35.4 °F 30.43 in Calm     55 % 0.00 in
21:36 50.7 °F 35.6 °F 30.43 in Calm     56 % 0.00 in
21:41 50.5 °F 36.0 °F 30.43 in Calm     57 % 0.00 in
21:46 50.4 °F 35.8 °F 30.43 in Calm     57 % 0.00 in
21:51 49.8 °F 35.2 °F 30.43 in Calm     57 % 0.00 in
21:57 50.0 °F 36.3 °F 30.43 in Calm     59 % 0.00 in
22:02 50.2 °F 36.3 °F 30.43 in Calm     59 % 0.00 in
22:07 50.0 °F 36.7 °F 30.43 in Calm     60 % 0.00 in
22:12 49.8 °F 36.5 °F 30.43 in Calm     60 % 0.00 in
22:17 49.6 °F 36.7 °F 30.43 in Calm     61 % 0.00 in
22:22 49.6 °F 36.7 °F 30.43 in Calm     61 % 0.00 in
22:27 49.5 °F 36.5 °F 30.43 in Calm     61 % 0.00 in
22:32 49.1 °F 36.7 °F 30.43 in Calm     62 % 0.00 in
22:37 49.1 °F 37.0 °F 30.43 in Calm     63 % 0.00 in
22:42 49.3 °F 37.6 °F 30.43 in Calm     64 % 0.00 in
22:47 49.3 °F 37.2 °F 30.43 in Calm     63 % 0.00 in
22:52 49.3 °F 36.9 °F 30.43 in Calm     62 % 0.00 in
22:57 49.1 °F 36.7 °F 30.43 in Calm     62 % 0.00 in
23:02 48.9 °F 36.5 °F 30.44 in Calm     62 % 0.00 in
23:07 48.9 °F 36.5 °F 30.44 in Calm     62 % 0.00 in
23:12 49.1 °F 36.7 °F 30.44 in Calm     62 % 0.00 in
23:17 49.3 °F 36.9 °F 30.44 in Calm     62 % 0.00 in
23:22 49.3 °F 36.9 °F 30.44 in Calm     62 % 0.00 in
23:27 49.3 °F 36.3 °F 30.44 in Calm   1.0 mph 61 % 0.00 in
23:32 49.3 °F 36.9 °F 30.45 in Calm   1.0 mph 62 % 0.00 in
23:37 48.9 °F 36.5 °F 30.45 in Calm   1.0 mph 62 % 0.00 in
23:42 48.7 °F 36.3 °F 30.45 in Calm     62 % 0.00 in
23:47 48.7 °F 36.3 °F 30.45 in Calm   1.0 mph 62 % 0.00 in
23:52 48.9 °F 36.5 °F 30.45 in North 1.0 mph 1.0 mph 62 % 0.00 in
23:57 48.9 °F 36.5 °F 30.45 in Calm   1.0 mph 62 % 0.00 in
Spring, Texas: Villages of Bridgestone
Compliments of Weather Underground - 2.75 mb

Script developed by  Jim McMurry - jmcmurry@mwt.net Adapted for the template by  Wim van der Kuil - Leuven-Template.eu

You find our weather info also at:

UK Metoffice

WeatherCloud

Weather Underground

Mid-South Weather Network

AWEKAS

Citizen Weather Observer Program (CWOP)

HAMweather, WeatherForYou, PWS Weather

Equipment we use:

Weather-station
Davis Vantage Vue

Weather-program
Meteohub

Weather-server
Debian 7.9 x86 (Guest)

Provider
DreamHost

Davis Vantage Vue

Meteohub

Debian 7.9 x86 (Guest)

DreamHost